Regional Weather Roundup
Issued by NWS

Home | Current Version | Previous Version | Text Only | Print | Product List | Glossary Off
Versions: 1 2 3 4 5 6 7 8 9 10 11 12 13 14 15 16 17 18 19 20 21 22 23 24 25 26 27 28 29 30 31 32 33 34 35 36 37 38 39 40 41 42 43 44 45 46 47 48 49 50

295
ASUS45 KABQ 232201
RWRNM
NEW MEXICO REGIONAL WEATHER ROUNDUP
NATIONAL WEATHER SERVICE ALBUQUERQUE NM
400 PM MDT WED AUG 23 2017

NOTE: "FAIR" MEANS FEW OR NO CLOUDS BELOW 12,000 FEET AGL WITH NO
       SIGNIFICANT WEATHER OR OBSTRUCTIONS TO VISION.

      THIS PRODUCT IS RELEASED AS TWO VERSIONS.  ONE VERSION NEAR
      THE TOP OF THE HOUR CONTAINING PRELIMINARY DATA FROM ALBUQUERQUE
      AND OTHER STATIONS.  A FINAL VERSION WITH ADDITIONAL DATA IS
      ISSUED ABOUT 10 MINUTES AFTER THE HOUR.

NMZ501-503-504-510>518-232300-
NORTHWEST PLATEAU/NORTHCENTRAL MOUNTAINS

CITY           SKY/WX    TMP DP  RH WIND       PRES   REMARKS
FARMINGTON     FAIR      85  41  21 W7        30.14F
LOS ALAMOS     PTSUNNY   69  48  46 W6        30.31F
SANTA FE       FAIR      80  44  27 CALM      30.22F
TAOS           FAIR      76  49  38 VRB3      30.31S
ANGEL FIRE     FAIR      71  47  42 SW9       30.37F

$$
NMZ402-403-502-505>509-232300-
WESTCENTRAL MOUNTAINS/SOUTHWEST MOUNTAINS

CITY           SKY/WX    TMP DP  RH WIND       PRES   REMARKS
GALLUP         LGT RAIN  78  45  30 NE14      30.23F
GRANTS         FAIR      78  49  36 S16       30.26S
SILVER CITY    TSTM      68  55  64 NE6       30.16R

$$
NMZ407-409-411-412-232300-
SOUTHERN DESERTS

CITY           SKY/WX    TMP DP  RH WIND       PRES   REMARKS
DEMING         FAIR      92  58  31 E8        30.04F
LAS CRUCES     FAIR      88  58  36 E5        30.08F
HOLLOMAN AFB   FAIR      94  58  29 SW9       30.04F
ALAMOGORDO     PTSUNNY   90  57  33 N3        30.04F
T OR C         FAIR      89  52  28 S5        30.08F

$$
NMZ519>523-232300-
CENTRAL VALLEYS/CENTRAL HIGHLANDS

CITY           SKY/WX    TMP DP  RH WIND       PRES   REMARKS
ALBUQUERQUE    PTSUNNY   84  51  31 SW5       30.15F
DOUBLE EAGLE   PTSUNNY   84  50  30 CALM      30.19F
CLINES CORNERS FAIR      77  47  34 NW13      30.28F
BELEN          FAIR      83  52  34 CALM      30.14F
SOCORRO        FAIR      87  49  27 W3        30.11F

$$
NMZ524>526-539-540-232300-
SOUTHCENTRAL MOUNTAINS

CITY           SKY/WX    TMP DP  RH WIND       PRES   REMARKS
RUIDOSO        FAIR      68  59  73 SE10      30.30F

$$
NMZ527>531-232300-
NORTHEAST HIGHLANDS/NORTHEAST PLAINS

CITY           SKY/WX    TMP DP  RH WIND       PRES   REMARKS
LAS VEGAS      PTSUNNY   71  58  63 S15       30.27F
RATON          FAIR      77  59  53 S12       30.21F
CLAYTON        FAIR      76  62  62 SE12      30.16F

$$
NMZ532>537-232300-
EASTCENTRAL PLAINS

CITY           SKY/WX    TMP DP  RH WIND       PRES   REMARKS
SANTA ROSA     FAIR      83  55  38 S3        30.12F
TUCUMCARI      FAIR      85  64  49 E10G17    30.08F
CANNON AFB     FAIR      80  67  64 E9        30.14F
CLOVIS AIRPORT FAIR      79  65  62 E13       30.14F

$$
NMZ028-029-538-232300-
SOUTHEAST PLAINS

CITY           SKY/WX    TMP DP  RH WIND       PRES   REMARKS
ROSWELL        FAIR      86  62  44 NW5       30.06F
ARTESIA        PTSUNNY   88  63  42 NE10      30.05F
CARLSBAD       FAIR      84  67  56 CALM      30.04F
HOBBS          PTSUNNY   86  59  39 E7        30.08F


$$




USA.gov is the U.S. government's official web portal to all federal, state and local government web resources and services.